www.pogodaiklimat.ru

Погода и климат >> Архив погоды >> Индонезия >> Surabaya Gedangan


ПОГОДА в Surabaya Gedangan

  • Прогноз погоды в Surabaya Gedangan
  • Монитор погоды в Surabaya Gedangan
  • Климат города

АРХИВ ПОГОДЫ в Surabaya Gedangan

Время (UTC), дата Ветер
(напр.,м/с)
 
Видим.   Явления Облачность Т
(С)
Тd
(С)
f
(%)
Тe
(С)
Тes
(С)
Комфортность P
(гПа)
Po
(гПа)
Тmin
(С)
Tmax
(С)
R
(мм)
R24
(мм)
S
(см)
06 17.06 ЮВ 4 12 км ясно +33.6 +21.3 49 +41 +51 опасность
перегрева
1009.5 1009.2
09 17.06 ЮВ 5 12 км ясно +31.2 +22.7 61 +41 +42 опасность
перегрева
1008.4 1008.1
12 17.06 ЮВ 2 8000 м 3/0
[Cs]
+28.7 +22.3 68 +37 +37 очень
душно
1009.8 1009.4 +34.2
15 17.06 В 3 8000 м ясно +27.7 +22.5 73 +36 +36 очень
душно
1010.5 1010.1
18 17.06 Ю 2 8000 м ясно +26.0 +21.8 78 +33 +33 очень
душно
1010.3 1009.9
21 17.06 Ю 2 8000 м ясно +24.2 +21.0 82 +30 +30 очень
душно
1009.4 1009.1
00 18.06 ЮЗ 1 9000 м ясно +24.2 +21.4 84 +31 +33 очень
душно
1011.0 1010.6 +23.9
03 18.06 ЮВ 3 11 км ясно +30.6 +20.7 56 +38 +49 очень
душно
1010.5 1010.1
06 18.06 ЮВ 4 12 км 4/0
[Ci fib]
+33.9 +19.8 44 +40 +48 очень
душно
1008.6 1008.2
09 18.06 Ю 3 11 км 3/0
[Ci fib]
+31.6 +20.1 51 +38 +40 очень
душно
1007.8 1007.4
12 18.06 ЮВ 2 9000 м 4/1 600 м
[Cu hum Ci fib]
+28.4 +21.8 67 +36 +36 очень
душно
1010.2 1009.8 +34.2
15 18.06 Ю 2 9000 м 3/1 600 м
[Cu hum Ci fib]
+27.2 +22.1 74 +35 +35 очень
душно
1011.4 1011.1
18 18.06 З 1 8000 м 1/0
[As trans Ci fib]
+25.8 +21.8 79 +33 +33 очень
душно
1010.8 1010.4
21 18.06 штиль 0 8000 м 3/0
[Ci fib]
+24.6 +21.8 84 +31 +31 очень
душно
1010.0 1009.6
00 19.06 Ю 1 9000 м 5/1 600 м
[Cu hum Ci fib]
+24.8 +21.4 81 +31 +34 очень
душно
1011.1 1010.8 +24.2
03 19.06 СВ 5 10 км 4/0
[Ci fib]
+31.2 +22.7 61 +41 +49 опасность
перегрева
1010.7 1010.4
06 19.06 ЮВ 5 12 км 4/0
[Ci fib]
+33.6 +22.6 53 +43 +51 опасность
перегрева
1009.1 1008.7
09 19.06 ЮВ 4 10 км 5/0
[Ci fib]
+31.8 +22.4 58 +41 +42 опасность
перегрева
1008.0 1007.6
12 19.06 В 2 8000 м 5/0
[Ci fib]
+29.2 +23.3 71 +40 +40 очень
душно
1010.2 1009.8 +33.8
15 19.06 В 2 8000 м 4/0
[Ci fib]
+27.8 +23.3 77 +38 +38 очень
душно
1011.1 1010.8
18 19.06 штиль 0 8000 м 4/0
[Ci fib]
+27.2 +23.6 81 +37 +37 очень
душно
1010.1 1009.8
21 19.06 ЮЗ 1 8000 м 5/0
[Ci fib]
+25.6 +22.8 85 +34 +34 очень
душно
1009.7 1009.3
00 20.06 штиль 0 10 км 3/0
[Ac trans Ci fib]
+25.2 +22.4 84 +33 +35 очень
душно
1011.0 1010.6 +24.7
03 20.06 СВ 2 10 км 6/3 600 м
[Cu hum As trans Ci fib]
+31.0 +23.8 66 +43 +51 опасность
перегрева
1011.3 1010.9
06 20.06 В 3 12 км 4/0
[Ci fib]
+34.8 +21.7 47 +43 +53 опасность
перегрева
1009.1 1008.8
09 20.06 ЮВ 3 12 км 4/0
[Ci fib]
+32.0 +22.0 56 +41 +42 опасность
перегрева
1008.1 1007.9
12 20.06 В 2 10 км 5/1 600 м
[Cu hum Ci fib]
+30.0 +24.8 74 +43 +43 опасность
перегрева
1010.6 1010.2 +35.0
15 20.06 В 2 10 км 5/0 600 м
[Ci fib]
+28.4 +23.4 74 +38 +38 очень
душно
1011.3 1010.9
18 20.06 штиль 0 10 км 4/3 600 м
[Cu hum Ci fib]
+27.8 +23.9 79 +38 +38 очень
душно
1010.3 1010.0
21 20.06 Ю 1 10 км 5/3 600 м
[Cu hum Ci fib]
+26.2 +23.6 86 +36 +36 очень
душно
1010.5 1010.1
00 21.06 В 3 8000 м слабый дождь 8/6 600 м
[Cu med, cong As op]
+26.0 +23.9 88 +36 +36 очень
душно
1012.4 1012.1 +25.0 0.0
03 21.06 В 1 8000 м слабый дождь 10/6 600 м
[Cu med, cong As op]
+26.2 +24.3 89 +36 +38 очень
душно
1013.1 1012.7 4
06 21.06 В 3 9000 м {дождь} 10/8 600 м
[Cu med, cong As op]
+29.1 +24.1 74 +40 +41 очень
душно
1010.6 1010.3 0.9
09 21.06 ЮВ 5 10 км 10/5 600 м
[Cu hum As op Ci fib]
+28.6 +24.1 77 +40 +40 очень
душно
1009.8 1009.5
12 21.06 В 3 10 км 4/4 600 м
[Cu hum]
+26.6 +24.0 86 +37 +37 очень
душно
1011.4 1011.0 +30.3
15 21.06 В 3 10 км 4/3 600 м
[Cu hum Ci fib]
+26.2 +24.1 88 +36 +36 очень
душно
1012.5 1012.1
18 21.06 штиль 0 10 км 4/3 600 м
[Cu hum Ci fib]
+26.2 +24.3 89 +36 +36 очень
душно
1011.7 1011.3
21 21.06 ЮВ 2 6000 м слабый дождь 8/4 600 м
[Cu med, cong As op Ci fib]
+25.0 +24.0 94 +34 +34 очень
душно
1010.8 1010.5 9
00 22.06 В 4 8000 м слабый дождь {гроза} 10/6 300 м
[Cb cap As op]
+25.4 +23.5 89 +34 +34 очень
душно
1012.7 1012.4 +24.9 14
03 22.06 В 3 9000 м {дождь} 9/4 600 м
[Cu hum Ac As Ci fib]
+26.8 +25.1 90 +39 +43 очень
душно
1012.3 1011.9 0.9
06 22.06 ЮВ 5 10 км 8/4 600 м
[Cu med, cong Ci fib]
+31.4 +24.4 66 +44 +48 опасность
перегрева
1010.3 1010.0 0.9
09 22.06 СЗ 2 8000 м осадки на расстоянии 10/8 600 м
[Cu med, cong As op]
+28.0 +24.3 80 +39 +39 очень
душно
1010.1 1009.9
12 22.06 ЮВ 1 8000 м {дождь} 4/3 600 м
[Cu hum Ci fib]
+26.7 +24.4 87 +37 +37 очень
душно
1011.1 1010.7 +31.8 0.5
15 22.06 В 1 8000 м 1/1 600 м
[Cu hum]
+26.2 +24.3 89 +36 +36 очень
душно
1012.6 1012.3
18 22.06 В 2 8000 м 1/0
[Ci fib]
+26.3 +24.6 90 +37 +37 очень
душно
1011.6 1011.3
21 22.06 В 2 8000 м 3/3 600 м
[Cu hum]
+26.2 +24.5 90 +37 +37 очень
душно
1010.1 1009.7
00 23.06 В 3 10 км 3/3 600 м
[Sc]
+26.5 +24.6 89 +37 +39 очень
душно
1010.9 1010.6 +25.0 2
03 23.06 Ю 7 12 км 4/4 600 м
[Cu hum]
+30.9 +24.7 70 +44 +46 опасность
перегрева
1011.5 1011.1
06 23.06 ЮВ 8 12 км 5/5 600 м
[Cu med, cong Ac trans]
+32.4 +24.3 62 +45 +46 опасность
перегрева
1008.9 1008.6
09 23.06 ЮВ 4 10 км 6/3 600 м
[Cu hum Ac trans Ci fib]
+30.0 +24.3 72 +42 +43 опасность
перегрева
1008.3 1008.0
12 23.06 ЮВ 1 8000 м 5/3 600 м
[Cu hum Ci fib]
+28.4 +24.7 80 +40 +40 очень
душно
1009.4 1009.1 +32.7
15 23.06 В 2 8000 м 5/3 600 м
[Cu hum Ac trans Ci fib]
+27.2 +24.2 84 +38 +38 очень
душно
1010.7 1010.3
18 23.06 В 3 8000 м 4/0
[Ci fib]
+26.6 +24.0 86 +37 +37 очень
душно
1010.3 1010.0
21 23.06 ЮВ 3 8000 м 4/0
[Ci fib]
+26.2 +23.6 86 +36 +36 очень
душно
1008.3 1008.0
00 24.06 Ю 2 10 км 4/1 600 м
[Cu hum As trans Ci fib]
+26.0 +24.5 91 +36 +38 очень
душно
1010.1 1009.7 +25.7
03 24.06 Ю 7 12 км 4/1 600 м
[Cu hum]
+30.9 +24.7 70 +44 +47 опасность
перегрева
1011.5 1011.1

 

Местоположение метеостанции Surabaya Gedangan (Индонезия): широта -7.22 долгота 113.71 высота над уровнем моря 113 м.

В архиве по умолчанию представлена погода в Surabaya Gedangan за последнюю неделю. Архивные данные за месяц целиком и за предыдущие месяцы, начиная с января 2011 года, Вы можете получить, выбрав интересующий диапазон дат из раскрывающегося списка и нажав кнопку "Ввод!".

Внимание! Время в таблицах - всемирное. Для получения местного времени необходимо прибавить поправку, которая в Surabaya Gedangan равна 7 ч.

Смотрите также архив погоды в соседних городах и на ближайших метеорологических станциях:

Погода в Kalianget (Индонезия) (33 км)
Погода в Juanda Int Airport (Индонезия) (106 км)
Погода в Surabaya Perak (Индонезия) (110 км)
Погода в Banyuwangi (Индонезия) (134 км)
Погода в Sangkapura BI (Индонезия) (194 км)
Погода в Denpasar (Индонезия) (233 км)
Погода в Ampenan (Индонезия) (297 км)
Погода в Semarang (Индонезия) (365 км)
Погода в Achmad Yani Int Airport (Индонезия) (369 км)
Погода в Sumbawa Besar (Индонезия) (429 км)

Пояснения к столбцам:

Ветер - указаны скорость ветра в м/с - средняя за 10 мин, порывы в срок и между сроками (в фигурных скобках) и направление, откуда дует ветер: С - северный, СВ - северо-восточный, В - восточный, ЮВ - юго-восточный, Ю - южный, ЮЗ - юго-западный, З - западный, СЗ - северо-западный.
Видимость - горизонтальная дальность видимости в метрах или километрах. При видимости от 1 до 10 км при отсутствии осадков обычно наблюдается дымка, при ухудшении видимости до 1 км и менее - туман. В сухую погоду видимость может ухудшаться дымом, пылью или мглою.
Явления - указаны атмосферные явления, наблюдавшиеся в срок или в последний час перед сроком; фигурными скобками обозначены явления, наблюдавшиеся между сроками (за 1-3 часа до срока); квадратными скобками обозначены град или гололедные отложения с указанием их диаметра в мм.
Облачность - указаны через наклонную черту общая и нижняя облачность в баллах и высота нижней границы облаков в метрах; квадратными скобками обозначены формы облаков: Ci - перистые, Cs - перисто-слоистые, Cc - перисто-кучевые, Ac - высококучевые, As - высокослоистые, Sc - слоисто-кучевые, Ns - слоисто-дождевые, Cu - кучевые, Cb - кучево-дождевые. Подробнее классификацию облаков см. в Атласе облаков (PDF).
T - Температура воздуха - температура, измеренная на высоте 2 м над землей.
Td - Температура точки росы - температура, при понижении до которой содержащийся в воздухе водяной пар достигнет насыщения.
f - Относительная влажность воздуха - влажноcть воздуха, измеренная на высоте 2 м над землей.
Te - Эффективная температура - температура, которую ощущает одетый по сезону человек в тени. Характеристика душности погоды. При расчете учитывается влияние влажности воздуха и скорости ветра на теплоощущения человека.
Tes - Эффективная температура на солнце - температура, которую ощущает человек, с поправкой на солнечный нагрев. Характеристика знойности погоды. Зависит от высоты солнца над горизонтом, облачности и скорости ветра. Ночью, в пасмурную погоду, а также при ветре 12 м/с и более поправка равна нулю.
P - Атмосферное давление - приведенное к уровню моря атмосферное давление.
Po - Атмосферное давление - измеренное на уровне метеостанции атмосферное давление.
Tmin - Минимальная температура - минимум температуры воздуха на высоте 2 м над землей.
Tmax - Максимальная температура - максимум температуры воздуха на высоте 2 м над землей.
R - Количество осадков - Количество выпавших осадков за период времени, мм. При наведении курсора мыши на число - период времени, за который выпало указанное количество осадков.
R24 - Количество осадков - Количество выпавших осадков за 24 часа, мм.
S - Снежный покров - Высота снежного покрова, см. При наведении курсора мыши на число - состояние снежного покрова и степень покрытия местности в баллах.